Simultaneous Nadir Overpasses (SNOs) Predictions

Prediction of SNOs between AQUA and METOP-B Satellite Orbit:

Table of predicted SNOs for the next 14.0 days since TLE Epoch: 10/29/2016
Index Date (AQUA) Time (AQUA) Lat,Lon (AQUA) SZA (AQUA ) Date (METOP-B) Time (METOP-B) Lat,Lon (METOP-B) SZA (METOP-B ) Distance(km) Time Diff (sec)
1 10/31/2016 04:35:15 -73.64, -74.32 92.21 10/31/2016 04:34:24 -73.65, -74.41 92.20 3.21 51
2 10/31/2016 05:24:45 73.76, 93.06 87.92 10/31/2016 05:25:02 73.76, 93.17 87.92 3.53 17
3 10/31/2016 06:14:24 -74.46,-100.91 91.35 10/31/2016 06:15:29 -74.46, -97.74 91.37 94.46 65
4 11/03/2016 00:09:31 -73.65, -7.90 91.31 11/03/2016 00:08:47 -73.65, -8.00 91.31 3.00 44
5 11/03/2016 00:59:00 73.73, 159.57 88.78 11/03/2016 00:59:25 73.76, 159.58 88.81 3.38 25
6 11/05/2016 19:43:47 -73.67, 58.49 90.43 11/05/2016 19:43:10 -73.65, 58.41 90.45 3.19 37
7 11/05/2016 20:33:16 73.76,-134.05 89.67 11/05/2016 20:33:48 73.75,-134.02 89.67 1.12 32
8 11/08/2016 15:18:02 -73.71, 124.85 89.57 11/08/2016 15:17:31 -73.70, 124.93 89.58 2.88 31
9 11/08/2016 16:07:30 73.75, -67.59 90.48 11/08/2016 16:08:10 73.75, -67.63 90.49 0.97 40
10 11/11/2016 10:52:17 -73.71,-168.71 88.78 11/11/2016 10:51:54 -73.69,-168.67 88.79 1.75 23
11 11/11/2016 11:41:45 73.75, -1.16 91.27 11/11/2016 11:42:33 73.74, -1.24 91.26 2.85 48
